Location: Arbon
(43.0005°N, 0.7472°E)
Time: 11:43:28
(UTC+00:00)

Cosmos 1674 Rocket - Pass Details

Date: 22 April 2026
Orbit: 596 x 622 km, 82.5° (Epoch: 14 May)

Event Time Altitude Azimuth Distance (km) Brightness Sun altitude
Rises 20:35:46 0° 346° (NNW) 2,866 7.8 -18.2°
Reaches altitude 10° 20:38:01 10° 341° (NNW) 1,961 7.0 -18.6°
Maximum altitude 20:42:12 49° 267° (W) 786 4.3 -19.2°
Enters shadow 20:45:19 17° 197° (SSW) 1,551 5.4 -19.6°
